Location: Albany
(42.6526°N, 73.7562°W)
Time: 10:26:56
(UTC+00:00)

Cosmos 1538 Rocket - Pass Details

Date: 19 November 2019
Orbit: 751 x 793 km, 74.0° (Epoch: 05 December)

Event Time Altitude Azimuth Distance (km) Brightness Sun altitude
Rises 21:55:29 0° 205° (SSW) 3,223 8.0 -5.3°
Reaches altitude 10° 21:57:51 10° 208° (SSW) 2,308 7.3 -5.7°
Maximum altitude 22:03:04 69° 292° (WNW) 834 4.4 -6.6°
Drops below altitude 10° 22:08:24 10° 16° (NNE) 2,351 6.2 -7.5°
Sets 22:10:50 0° 18° (NNE) 3,288 6.9 -7.9°
